ONEWEB-0090 (45427 NORAD) Tracking and Keplerian Element Data

This shows tracking and keplerian element data for the satellite.

Feedback or suggestion? Click here.




ElementValue
Catalog45427
NameONEWEB-0090
Epoch Orbit1636
Epoch Day190.25001157
Epoch Year2020
RAAN103.5333
Inclination87.5509
Eccentricity0.0024563
Argument of Perigee255.4722
Mean Anonmoly222.9667
Mean Motion14.89382191
Decay Rate0.0001698
L11 45427U 20020D 20190.25001157 .00016980 00000-0 17739-2 0 9992
L22 45427 87.5509 103.5333 0024563 255.4722 222.9667 14.89382191 16369

Live tracking and technical data element details for ONEWEB-0090 (NORAD 45427). ONEWEB-0090 can be tracked NOW for your location showing map with azimuth and elevation plus other details from your city location.

Track the satellite on the map from your city or location and see movement details for azimuth, elevation, latitude, longitude, range, height, and movement on the map or in text.







IsCatalogInMostPopularTable: catalog: 45427, numindb: 20
Update: records affected: 1



GetName: 45427 ONEWEB-0090

Hit Count: updated at: Fri, 10 Jul 2020 02:22:28 GMT